Location: Wanzleben
(52.0609°N, 11.4408°E)
Time: 01:00:34
(UTC+00:00)

Cosmos 1833 Rocket - Pass Details

Date: 18 September 2020
Orbit: 831 x 841 km, 71.0° (Epoch: 23 October)

Event Time Altitude Azimuth Distance (km) Brightness Sun altitude
Rises 18:14:30 0° 327° (NNW) 3,407 6.6 -8.9°
Reaches altitude 10° 18:17:43 10° 345° (NNW) 2,471 5.5 -9.4°
Maximum altitude 18:21:42 19° 31° (NNE) 1,898 4.4 -10.0°
Drops below altitude 10° 18:25:42 10° 76° (ENE) 2,465 4.6 -10.6°
Enters shadow 18:25:52 - 77° (ENE) 2,508 4.6 -10.6°
